Weather History for Ellensburg, WA

Change the Weather History Date:

Thursday, January 12, 2012

  Actual Average (KYKM) Record (KYKM)
Temperature  
Mean Temperature 21 °F 30 °F  
Max Temperature 32 °F 38 °F 59 °F (2014)
Min Temperature 10 °F 23 °F -6 °F (1949)
Degree Days  
Heating Degree Days 44 35  
Month to date heating degree days 431  
Since 1 July heating degree days 3094  
Cooling Degree Days 0 0  
Month to date cooling degree days 0  
Year to date cooling degree days 0  
Moisture  
Dew Point 13 °F    
Average Humidity 68    
Maximum Humidity 81    
Minimum Humidity 50    
Precipitation  
Precipitation 0.00 in 0.04 in 0.45 in (1973)
Month to date precipitation 0.51  
Year to date precipitation 0.51  
Snow  
Snow 0.00 in 0.20 in 3.40 in (1969)
Month to date snowfall 2.7  
Year to date snowfall 2.7  
Since 1 July snowfall 15.7  
Snow Depth -    
Sea Level Pressure  
Sea Level Pressure 30.51 in    
Wind  
Wind Speed 2 mph (NE)    
Max Wind Speed 5 mph    
Max Gust Speed -    
Visibility 10 miles    
Events      
T = Trace of Precipitation, MM = Missing Value Source: NWS Daily Summary

Daily Weather History Graph

Daily Weather History Graph

Search for Another Location

Airport:

Trip Planner

Search our weather history database for the weather conditions in past years. The results will help you decide how hot, cold, wet, or windy it might be!

Date:

Astronomy

Jan. 12, 2012 Rise Set
Actual Time 7:45 AM PST 4:35 PM PST
Civil Twilight 7:10 AM PST 5:10 PM PST
Nautical Twilight 6:32 AM PST 5:48 PM PST
Astronomical Twilight 5:56 AM PST 6:24 PM PST
Moon 9:06 PM PST (1/12) 9:14 AM PST (1/12)
Length of Visible Light 9h 59m
Length of Day
8h 50m
Waning Gibbous, 86% of the Moon is Illuminated
Jan 12
Waning Gibbous
Jan 16
Last Quarter
Jan 22
New
Jan 30
First Quarter
Feb 7
Full

Hourly Weather History & Observations

Time (PST) Temp. Windchill Dew Point Humidity Pressure Visibility Wind Dir Wind Speed Gust Speed Precip Events Conditions
12:53 AM 14.0 °F 8.2 °F 7.0 °F 74% 30.58 in 10.0 mi NW 3.5 mph - N/A   Clear
2:53 AM 15.1 °F - 7.0 °F 70% 30.59 in 10.0 mi Calm Calm - N/A   Clear
3:53 AM 10.9 °F 2.9 °F 6.1 °F 81% 30.58 in 10.0 mi North 4.6 mph - N/A   Clear
4:53 AM 18.0 °F 12.7 °F 10.0 °F 71% 30.57 in 10.0 mi NE 3.5 mph - N/A   Clear
5:53 AM 17.1 °F 11.7 °F 10.0 °F 74% 30.57 in 10.0 mi SSW 3.5 mph - N/A   Clear
6:53 AM 14.0 °F 6.5 °F 8.1 °F 77% 30.59 in 10.0 mi North 4.6 mph - N/A   Clear
7:53 AM 15.1 °F 9.4 °F 9.0 °F 77% 30.58 in 10.0 mi ESE 3.5 mph - N/A   Clear
8:53 AM 19.9 °F - 12.9 °F 74% 30.59 in 10.0 mi Calm Calm - N/A   Clear
9:53 AM 21.0 °F - 14.0 °F 74% 30.59 in 10.0 mi Calm Calm - N/A   Clear
10:53 AM 25.0 °F - 15.1 °F 66% 30.58 in 10.0 mi Calm Calm - N/A   Clear
11:53 AM 26.1 °F - 16.0 °F 66% 30.53 in 10.0 mi Calm Calm - N/A   Clear
12:53 PM 30.0 °F - 16.0 °F 56% 30.50 in 10.0 mi Calm Calm - N/A   Clear
1:53 PM 30.9 °F - 15.1 °F 52% 30.49 in 10.0 mi Calm Calm - N/A   Clear
2:53 PM 30.9 °F - 15.1 °F 52% 30.46 in 10.0 mi Calm Calm - N/A   Clear
3:53 PM 32.0 °F - 15.1 °F 50% 30.47 in 10.0 mi Calm Calm - N/A   Clear
4:53 PM 30.0 °F - 15.1 °F 54% 30.44 in 10.0 mi Calm Calm - N/A   Clear
5:53 PM 27.0 °F - 15.1 °F 61% 30.45 in 10.0 mi Calm Calm - N/A   Clear
6:53 PM 25.0 °F 19.3 °F 16.0 °F 69% 30.44 in 10.0 mi East 4.6 mph - N/A   Clear
7:53 PM 21.9 °F 17.2 °F 14.0 °F 72% 30.44 in 10.0 mi NE 3.5 mph - N/A   Clear
8:53 PM 19.9 °F 14.9 °F 12.9 °F 74% 30.43 in 10.0 mi NNE 3.5 mph - N/A   Clear
9:53 PM 21.9 °F - 15.1 °F 75% 30.41 in 10.0 mi Calm Calm - N/A   Clear
10:53 PM 19.9 °F - 12.9 °F 74% 30.41 in 10.0 mi Calm Calm - N/A   Clear
11:53 PM 19.0 °F 13.9 °F 12.0 °F 74% 30.40 in 10.0 mi ESE 3.5 mph - N/A   Clear